Find Starlink 37164

NORAD ID: 68324 Int'l Des: 2026-059 Owner: SPXS Country: US Constellation: starlink operational
LEOCIRCULAR

当前视图

正在加载3D地球...

About Starlink 37164

Starlink 37164 (NORAD 68324) is a starlink constellation satellite (v2 mini) launched Mar 22, 2026 by SPXS of US. It operates in LEO, CIRCULAR orbit with a mass of 575.00 kg.

关于 Starlink 37164

正在加载描述...

即将过境

Passes for default location (London). Set your location on the main map for personalized predictions.

高度历史

Loading altitude history...

两行轨道根数

1 68324U 26059D 26171.41381564 .00008173 00000-0 28773-3 0 9993
2 68324 53.1580 231.0918 0001538 75.3401 284.7770 15.30203012 15039
Epoch: Jun 20, 2026 • Age: 35 hours

当前状态

高度 475.3 km
速度 7.63 km/s
星下点 9.02°N, 170.14°E
发射日期 Mar 22, 2026
运行时间 0.2 years
类型 internet

技术详情

分类 Payload
质量 575.00 kg
干质量 530.00 kg
总质量 575.00 kg
长度 0.30 m
直径 4.10 m
跨度 29.00 m
形状 Box + pan
制造商 SPXS
平台类型 Starlink V2MO
阶段状态 In Orbit
所有者/国家 SPXS/US

Most Searched